This is the latest recevied weather packets stored in our database for station/object N5VIS. If no packets are shown the sender has not sent any weather packets the latest 10 day(s).
| Time | Temp. | Humidity | Pressure | Rain* | Wind** | Luminosity | Snow |
|---|---|---|---|---|---|---|---|
| 1777983400 | 17.22° C | 85% | 1015.2 hPa | 0 mm | - | - | - |
| 1777983097 | 16.67° C | 88% | 1015 hPa | 0 mm | - | - | - |
| 1777982793 | 16.67° C | 89% | 1015.3 hPa | 0 mm | - | - | - |
| 1777982489 | 16.67° C | 89% | 1015.2 hPa | 0 mm | - | - | - |
| 1777982183 | 16.67° C | 90% | 1015.3 hPa | 0 mm | - | - | - |
| 1777981881 | 16.67° C | 91% | 1015.2 hPa | 0 mm | - | - | - |
| 1777981578 | 16.67° C | 91% | 1015.2 hPa | 0 mm | - | - | - |
| 1777981274 | 16.67° C | 91% | 1014.9 hPa | 0 mm | - | - | - |
| 1777980971 | 16.67° C | 92% | 1014.9 hPa | 0 mm | - | - | - |
| 1777980668 | 16.67° C | 92% | 1015 hPa | 0 mm | - | - | - |
| 1777980363 | 16.67° C | 91% | 1014.9 hPa | 0 mm | - | - | - |
| 1777980063 | 16.67° C | 91% | 1014.9 hPa | 0 mm | - | - | - |
| 1777979761 | 16.67° C | 91% | 1014.9 hPa | 0 mm | - | - | - |
| 1777979458 | 16.67° C | 91% | 1014.9 hPa | 0 mm | - | - | - |
| 1777979154 | 16.67° C | 91% | 1014.7 hPa | 0 mm | - | - | - |
| 1777978851 | 16.67° C | 91% | 1014.7 hPa | 0 mm | - | - | - |
| 1777978548 | 16.11° C | 92% | 1014.7 hPa | 0 mm | - | - | - |
| 1777978244 | 16.11° C | 92% | 1014.7 hPa | 0 mm | - | - | - |
| 1777977941 | 16.11° C | 92% | 1014.7 hPa | 0 mm | - | - | - |
| 1777977639 | 15.56° C | 92% | 1014.7 hPa | 0 mm | - | - | - |
| 1777977335 | 15.56° C | 92% | 1014.8 hPa | 0 mm | - | - | - |
| 1777977032 | 15.56° C | 92% | 1014.7 hPa | 0 mm | - | - | - |
| 1777976729 | 15° C | 89% | 1014.7 hPa | 0 mm | - | - | - |
| 1777976427 | 15.56° C | 90% | 1014.7 hPa | 0 mm | - | - | - |
| 1777976125 | 14.44° C | 91% | 1014.6 hPa | 0 mm | - | - | - |
* Rain latest hour (hover to see other rain measurements)
** Current wind speed in m/s (hover to see current wind gust speed)